WetterOnline ( https://www.wetteronline.de )

Wetter aktuell Neuhofen

Aktuelles Wetter: Mannheim (100m)

6-stündlich | Neueste Meldungen
Ortszeit Temperatur Wetter
Mi, 20.11. 1:00 0.7° C bedeckt
Di, 19.11. 19:00 4.1° C wolkig
Di, 19.11. 13:00 6.5° C bedeckt
Di, 19.11. 7:00 5.2° C bedeckt
Di, 19.11. 1:00 5.3° C bedeckt
Mo, 18.11. 19:00 4.0° C bedeckt
Mo, 18.11. 13:00 4.3° C Sprühregen
Mo, 18.11. 7:00 4.3° C bewölkt
Ortszeit Temperatur Wetter
Mi, 20.11. 2:00 0.8° C Nebel
Mi, 20.11. 1:50 0.8° C Nebel
Mi, 20.11. 1:40 1.0° C Nebel
Mi, 20.11. 1:30 0.7° C bedeckt
Mi, 20.11. 1:20 0.7° C bedeckt
Mi, 20.11. 1:10 0.6° C bedeckt
Mi, 20.11. 1:00 0.7° C bedeckt
Mi, 20.11. 0:30 0.4° C bedeckt
Mi, 20.11. 0:00 -0.4° C Nebel
Di, 19.11. 23:30 -0.7° C Nebel
Di, 19.11. 23:00 -0.1° C Nebel
Ortszeit Relative Feuchte Sichtweite
Mi, 20.11. 1:00 99% 3.0 km
Di, 19.11. 19:00 96% 14 km
Di, 19.11. 13:00 86% 15 km
Di, 19.11. 7:00 89% 15 km
Di, 19.11. 1:00 86% 30 km
Mo, 18.11. 19:00 82% 50 km
Mo, 18.11. 13:00 82% 70 km
Mo, 18.11. 7:00 91% 13 km
Ortszeit Relative Feuchte Sichtweite
Mi, 20.11. 2:00 100% 0.3 km
Mi, 20.11. 1:50 100% -
Mi, 20.11. 1:40 100% -
Mi, 20.11. 1:30 99% 4.0 km
Mi, 20.11. 1:20 99% -
Mi, 20.11. 1:10 99% -
Mi, 20.11. 1:00 99% 3.0 km
Mi, 20.11. 0:30 100% 2.8 km
Mi, 20.11. 0:00 100% 0.2 km
Di, 19.11. 23:30 100% <100 m
Di, 19.11. 23:00 100% 100 m
Ortszeit Niederschlagsmenge Niederschlagsart
Mi, 20.11. 1:00 0.0 l/m2 in 6 Std. -
Di, 19.11. 19:00 0.3 l/m2 in 12 Std. Regen
Di, 19.11. 13:00 0.3 l/m2 in 6 Std. Regen
Di, 19.11. 7:00 0.1 l/m2 in 12 Std. Regen
Di, 19.11. 1:00 0.1 l/m2 in 6 Std. Regen
Mo, 18.11. 19:00 0.1 l/m2 in 12 Std. Regen
Mo, 18.11. 13:00 0.1 l/m2 in 6 Std. Regen
Mo, 18.11. 7:00 0.6 l/m2 in 12 Std. -
Ortszeit Niederschlagsmenge Niederschlagsart
Mi, 20.11. 2:00 0.0 l/m2 in 1 Std. -
Mi, 20.11. 1:50 keine Meldung -
Mi, 20.11. 1:40 keine Meldung -
Mi, 20.11. 1:30 0.0 l/m2 in 1 Std. -
Mi, 20.11. 1:20 keine Meldung -
Mi, 20.11. 1:10 keine Meldung -
Mi, 20.11. 1:00 0.0 l/m2 in 1 Std. -
Mi, 20.11. 0:30 0.0 l/m2 in 1 Std. -
Mi, 20.11. 0:00 0.0 l/m2 in 1 Std. -
Di, 19.11. 23:30 0.0 l/m2 in 1 Std. -
Di, 19.11. 23:00 0.0 l/m2 in 1 Std. -
Ortszeit Stärke Spitze Richtung
km/h Bft. km/h Grad Sektor
Mi, 20.11. 1:00 4 1 11 30° NO
Di, 19.11. 19:00 6 1 13 200° S
Di, 19.11. 13:00 4 1 11 100° O
Di, 19.11. 7:00 7 2 36 180° S
Di, 19.11. 1:00 24 4 37 200° S
Mo, 18.11. 19:00 18 3 40 200° S
Mo, 18.11. 13:00 22 4 36 190° S
Mo, 18.11. 7:00 14 3 32 180° S
Ortszeit Stärke Spitze Richtung
km/h Bft. km/h Grad Sektor
Mi, 20.11. 2:00 2 1 7 80° O
Mi, 20.11. 1:50 2 1 - 80° O
Mi, 20.11. 1:40 4 1 - 20° N
Mi, 20.11. 1:30 2 1 6 70° O
Mi, 20.11. 1:20 2 1 - 70° O
Mi, 20.11. 1:10 4 1 - 30° NO
Mi, 20.11. 1:00 4 1 7 30° NO
Mi, 20.11. 0:30 4 1 7 70° O
Mi, 20.11. 0:00 4 1 7 30° NO
Di, 19.11. 23:30 0 0 4 - -
Di, 19.11. 23:00 4 1 4 40° NO
Ortszeit Untergrenze Bedeckung Gattung
total tief tief mittel hoch
Mi, 20.11. 1:00 60 m 8/8 8/8 - - -
Di, 19.11. 19:00 870 m 6/8 5/8 - - -
Di, 19.11. 13:00 270 m 8/8 8/8 - - -
Di, 19.11. 7:00 450 m 8/8 8/8 - - -
Di, 19.11. 1:00 360 m 8/8 8/8 - - -
Mo, 18.11. 19:00 480 m 8/8 8/8 - - -
Mo, 18.11. 13:00 420 m 8/8 8/8 - - -
Mo, 18.11. 7:00 240 m 7/8 7/8 - - -
Ortszeit Bedeckungsgrad in Achtel und Wolkenuntergrenze
Mi, 20.11. 2:00 8(30m)
Mi, 20.11. 1:50 8(30m)
Mi, 20.11. 1:40 8(30m)
Mi, 20.11. 1:30 8(30m)
Mi, 20.11. 1:20 8(30m)
Mi, 20.11. 1:10 8(30m)
Mi, 20.11. 1:00 8(60m)
Mi, 20.11. 0:30 8(60m)
Mi, 20.11. 0:00 7(30m) 7(180m)
Di, 19.11. 23:30 8(<30m)
Di, 19.11. 23:00 6(<30m)
Ortszeit Luftdruck NN (hPa) Tendenz (hPa in 3 Std.)
Mi, 20.11. 1:00 1020 + 0,1
Di, 19.11. 19:00 1020 + 1,1
Di, 19.11. 13:00 1018 + 0,2
Di, 19.11. 7:00 1017 + 0,7
Di, 19.11. 1:00 1015 + 1,2
Mo, 18.11. 19:00 1013 + 1,4
Mo, 18.11. 13:00 1009 + 0,6
Mo, 18.11. 7:00 1007 + 1,5
Ortszeit Luftdruck NN (hPa) Tendenz (hPa in 3 Std.)
Mi, 20.11. 2:00 1020 - 0,3
Mi, 20.11. 1:50 1020 keine Meldung
Mi, 20.11. 1:40 1020 keine Meldung
Mi, 20.11. 1:30 1020 - 0,1
Mi, 20.11. 1:20 1020 keine Meldung
Mi, 20.11. 1:10 1020 keine Meldung
Mi, 20.11. 1:00 1020 + 0,1
Mi, 20.11. 0:30 1020 + 0,3
Mi, 20.11. 0:00 1021 + 0,3
Di, 19.11. 23:30 1021 + 0,3
Di, 19.11. 23:00 1020 + 0,2
Ortszeit Schneehöhe (cm)
Mi, 20.11. 1:00 0
Di, 19.11. 19:00 0
Di, 19.11. 13:00 0
Di, 19.11. 7:00 0
Di, 19.11. 1:00 0
Mo, 18.11. 19:00 0
Mo, 18.11. 13:00 0
Mo, 18.11. 7:00 0
Ortszeit Schneehöhe (cm)
Mi, 20.11. 2:00 0
Mi, 20.11. 1:50 0
Mi, 20.11. 1:40 0
Mi, 20.11. 1:30 0
Mi, 20.11. 1:20 0
Mi, 20.11. 1:10 0
Mi, 20.11. 1:00 0
Mi, 20.11. 0:30 0
Mi, 20.11. 0:00 0
Di, 19.11. 23:30 0
Di, 19.11. 23:00 0
Link zu dieser Seite / Seite empfehlen

Das Wetter in ...